Time,TemperatureF,DewpointF,PressureIn,WindDirection,WindDirectionDegrees,WindSpeedMPH,WindSpeedGustMPH,Humidity,HourlyPrecipIn,Conditions,Clouds,dailyrainin,SoftwareType,DateUTC
2013-02-24 00:00:00,22.4,19.6,29.47,West,270,0.0,9.0,89,0.00,,,0.06,Wunderground v.1.15,2013-02-24 07:00:00,
2013-02-24 00:05:00,22.4,19.6,29.47,West,270,0.0,9.0,89,0.00,,,0.06,Wunderground v.1.15,2013-02-24 07:05:00,
2013-02-24 00:10:00,22.3,19.6,29.47,West,270,0.0,9.0,89,0.00,,,0.06,Wunderground v.1.15,2013-02-24 07:10:00,
2013-02-24 00:15:00,22.3,19.8,29.47,West,270,0.0,9.0,90,0.00,,,0.06,Wunderground v.1.15,2013-02-24 07:15:00,
2013-02-24 00:20:00,22.3,19.8,29.47,West,270,0.0,9.0,90,0.00,,,0.06,Wunderground v.1.15,2013-02-24 07:20:00,
2013-02-24 00:25:00,22.2,19.7,29.47,West,270,0.0,9.0,90,0.00,,,0.06,Wunderground v.1.15,2013-02-24 07:25:00,
2013-02-24 00:30:00,22.2,19.7,29.46,West,270,0.0,9.0,90,0.00,,,0.06,Wunderground v.1.15,2013-02-24 07:30:00,
2013-02-24 00:35:00,22.2,19.7,29.46,West,270,0.0,9.0,90,0.00,,,0.06,Wunderground v.1.15,2013-02-24 07:35:00,
2013-02-24 00:40:00,22.2,19.7,29.45,West,270,0.0,9.0,90,0.00,,,0.06,Wunderground v.1.15,2013-02-24 07:40:00,
2013-02-24 00:45:00,22.1,19.6,29.46,West,270,0.0,9.0,90,0.00,,,0.06,Wunderground v.1.15,2013-02-24 07:45:00,
2013-02-24 00:50:00,22.1,19.6,29.46,West,270,0.0,9.0,90,0.00,,,0.06,Wunderground v.1.15,2013-02-24 07:50:00,
2013-02-24 00:55:00,22.0,19.5,29.46,West,270,0.0,9.0,90,0.00,,,0.06,Wunderground v.1.15,2013-02-24 07:55:00,
2013-02-24 01:00:00,22.0,19.5,29.46,West,270,0.0,9.0,90,0.00,,,0.06,Wunderground v.1.15,2013-02-24 08:00:00,
2013-02-24 01:05:00,22.0,19.5,29.46,West,270,0.0,9.0,90,0.00,,,0.00,Wunderground v.1.15,2013-02-24 08:05:00,
2013-02-24 01:10:00,21.9,19.4,29.45,West,270,0.0,9.0,90,0.00,,,0.00,Wunderground v.1.15,2013-02-24 08:10:00,
2013-02-24 01:15:00,21.9,19.4,29.45,West,270,0.0,9.0,90,0.00,,,0.00,Wunderground v.1.15,2013-02-24 08:15:00,
2013-02-24 01:20:00,21.9,19.4,29.45,West,270,0.0,9.0,90,0.00,,,0.00,Wunderground v.1.15,2013-02-24 08:20:00,
2013-02-24 01:25:00,21.9,19.7,29.45,West,270,0.0,9.0,91,0.00,,,0.00,Wunderground v.1.15,2013-02-24 08:25:00,
2013-02-24 01:30:00,21.9,19.7,29.45,West,270,0.0,9.0,91,0.00,,,0.00,Wunderground v.1.15,2013-02-24 08:30:00,
2013-02-24 01:35:00,21.9,19.7,29.45,West,270,0.0,9.0,91,0.00,,,0.00,Wunderground v.1.15,2013-02-24 08:35:00,
2013-02-24 01:40:00,21.9,19.7,29.45,West,270,0.0,9.0,91,0.00,,,0.00,Wunderground v.1.15,2013-02-24 08:40:00,
2013-02-24 01:50:00,21.8,19.6,29.44,West,270,0.0,9.0,91,0.00,,,0.00,Wunderground v.1.15,2013-02-24 08:50:00,
2013-02-24 01:55:00,21.8,19.6,29.44,West,270,0.0,9.0,91,0.00,,,0.00,Wunderground v.1.15,2013-02-24 08:55:00,
2013-02-24 02:00:00,21.8,19.6,29.45,West,270,0.0,9.0,91,0.00,,,0.00,Wunderground v.1.15,2013-02-24 09:00:00,
2013-02-24 02:05:00,21.9,19.9,29.44,West,270,0.0,9.0,92,0.00,,,0.00,Wunderground v.1.15,2013-02-24 09:05:00,
2013-02-24 02:10:00,21.9,19.9,29.44,West,270,0.0,9.0,92,0.00,,,0.00,Wunderground v.1.15,2013-02-24 09:10:00,
2013-02-24 02:15:00,21.8,19.8,29.43,West,270,0.0,9.0,92,0.00,,,0.00,Wunderground v.1.15,2013-02-24 09:15:00,
2013-02-24 02:20:00,21.7,19.5,29.43,West,270,0.0,9.0,91,0.00,,,0.00,Wunderground v.1.15,2013-02-24 09:20:00,
2013-02-24 02:35:00,21.0,18.5,29.43,West,270,0.0,9.0,90,0.00,,,0.00,Wunderground v.1.15,2013-02-24 09:35:00,
2013-02-24 02:40:00,20.9,18.7,29.42,West,270,0.0,9.0,91,0.00,,,0.00,Wunderground v.1.15,2013-02-24 09:40:00,
2013-02-24 02:45:00,20.9,18.9,29.42,West,270,0.0,9.0,92,0.00,,,0.00,Wunderground v.1.15,2013-02-24 09:45:00,
2013-02-24 02:50:00,20.9,19.2,29.42,West,270,0.0,9.0,93,0.00,,,0.00,Wunderground v.1.15,2013-02-24 09:50:00,
2013-02-24 02:55:00,21.0,19.3,29.42,West,270,0.0,9.0,93,0.00,,,0.00,Wunderground v.1.15,2013-02-24 09:55:00,
2013-02-24 03:00:00,21.1,19.4,29.42,West,270,0.0,9.0,93,0.00,,,0.00,Wunderground v.1.15,2013-02-24 10:00:00,
2013-02-24 03:05:00,21.1,19.4,29.42,West,270,0.0,9.0,93,0.00,,,0.00,Wunderground v.1.15,2013-02-24 10:05:00,
2013-02-24 03:10:00,21.1,19.4,29.41,West,270,0.0,9.0,93,0.00,,,0.00,Wunderground v.1.15,2013-02-24 10:10:00,
2013-02-24 03:15:00,21.1,19.4,29.41,West,270,0.0,9.0,93,0.00,,,0.00,Wunderground v.1.15,2013-02-24 10:15:00,
2013-02-24 03:20:00,21.0,19.3,29.41,West,270,0.0,9.0,93,0.00,,,0.00,Wunderground v.1.15,2013-02-24 10:20:00,
2013-02-24 03:25:00,20.9,19.2,29.41,West,270,0.0,9.0,93,0.00,,,0.00,Wunderground v.1.15,2013-02-24 10:25:00,
2013-02-24 03:30:00,20.9,18.9,29.41,West,270,0.0,9.0,92,0.00,,,0.00,Wunderground v.1.15,2013-02-24 10:30:00,
2013-02-24 03:40:00,20.8,18.8,29.41,West,270,0.0,9.0,92,0.00,,,0.00,Wunderground v.1.15,2013-02-24 10:40:00,
2013-02-24 03:45:00,20.6,18.6,29.42,West,270,0.0,9.0,92,0.00,,,0.00,Wunderground v.1.15,2013-02-24 10:45:00,
2013-02-24 03:50:00,20.5,18.5,29.42,West,270,0.0,9.0,92,0.00,,,0.00,Wunderground v.1.15,2013-02-24 10:50:00,
2013-02-24 03:55:00,20.4,18.4,29.42,West,270,0.0,9.0,92,0.00,,,0.00,Wunderground v.1.15,2013-02-24 10:55:00,
2013-02-24 04:00:00,20.4,18.4,29.42,West,270,0.0,9.0,92,0.00,,,0.00,Wunderground v.1.15,2013-02-24 11:00:00,
2013-02-24 04:10:00,20.2,17.7,29.42,West,270,0.0,9.0,90,0.00,,,0.00,Wunderground v.1.15,2013-02-24 11:10:00,
2013-02-24 04:15:00,20.0,17.3,29.42,West,270,0.0,9.0,89,0.00,,,0.00,Wunderground v.1.15,2013-02-24 11:15:00,
2013-02-24 04:20:00,19.8,17.1,29.43,West,270,0.0,9.0,89,0.00,,,0.00,Wunderground v.1.15,2013-02-24 11:20:00,
2013-02-24 04:25:00,19.6,16.9,29.43,West,270,0.0,9.0,89,0.00,,,0.00,Wunderground v.1.15,2013-02-24 11:25:00,
2013-02-24 04:30:00,19.5,16.8,29.42,West,270,0.0,9.0,89,0.00,,,0.00,Wunderground v.1.15,2013-02-24 11:30:00,
2013-02-24 04:35:00,19.3,16.6,29.43,West,270,0.0,9.0,89,0.00,,,0.00,Wunderground v.1.15,2013-02-24 11:35:00,
2013-02-24 04:45:00,19.0,16.0,29.43,West,270,0.0,9.0,88,0.00,,,0.00,Wunderground v.1.15,2013-02-24 11:45:00,
2013-02-24 04:50:00,18.8,15.8,29.44,West,270,0.0,9.0,88,0.00,,,0.00,Wunderground v.1.15,2013-02-24 11:50:00,
2013-02-24 04:55:00,18.5,15.5,29.44,West,270,0.0,9.0,88,0.00,,,0.00,Wunderground v.1.15,2013-02-24 11:55:00,
2013-02-24 05:00:00,18.3,15.3,29.43,West,270,0.0,9.0,88,0.00,,,0.00,Wunderground v.1.15,2013-02-24 12:00:00,
2013-02-24 05:05:00,18.1,15.4,29.42,West,270,0.0,9.0,89,0.00,,,0.00,Wunderground v.1.15,2013-02-24 12:05:00,
2013-02-24 05:10:00,17.8,14.8,29.43,West,270,0.0,9.0,88,0.00,,,0.00,Wunderground v.1.15,2013-02-24 12:10:00,
2013-02-24 05:15:00,17.5,14.6,29.43,West,270,0.0,9.0,88,0.00,,,0.00,Wunderground v.1.15,2013-02-24 12:15:00,
2013-02-24 05:20:00,17.3,14.6,29.42,West,270,0.0,9.0,89,0.00,,,0.00,Wunderground v.1.15,2013-02-24 12:20:00,
2013-02-24 05:25:00,17.0,14.1,29.42,West,270,0.0,9.0,88,0.00,,,0.00,Wunderground v.1.15,2013-02-24 12:25:00,
2013-02-24 05:35:00,16.6,13.9,29.42,West,270,0.0,9.0,89,0.00,,,0.00,Wunderground v.1.15,2013-02-24 12:35:00,
2013-02-24 05:40:00,16.3,13.6,29.41,West,270,0.0,9.0,89,0.00,,,0.00,Wunderground v.1.15,2013-02-24 12:40:00,
2013-02-24 05:45:00,16.0,13.1,29.41,West,270,0.0,9.0,88,0.00,,,0.00,Wunderground v.1.15,2013-02-24 12:45:00,
2013-02-24 05:50:00,15.7,12.8,29.41,West,270,0.0,9.0,88,0.00,,,0.00,Wunderground v.1.15,2013-02-24 12:50:00,
2013-02-24 05:55:00,15.5,12.8,29.43,West,270,0.0,9.0,89,0.00,,,0.00,Wunderground v.1.15,2013-02-24 12:55:00,
2013-02-24 06:00:00,15.3,12.4,29.43,WNW,286,0.0,9.0,88,0.00,,,0.00,Wunderground v.1.15,2013-02-24 13:00:00,
2013-02-24 06:05:00,15.4,13.2,29.44,WNW,286,0.0,9.0,91,0.00,,,0.00,Wunderground v.1.15,2013-02-24 13:05:00,
2013-02-24 06:10:00,15.9,14.2,29.44,WNW,284,0.0,9.0,93,0.00,,,0.00,Wunderground v.1.15,2013-02-24 13:10:00,
2013-02-24 06:15:00,16.3,14.6,29.44,WNW,284,0.0,9.0,93,0.00,,,0.00,Wunderground v.1.15,2013-02-24 13:15:00,
2013-02-24 06:20:00,16.8,15.4,29.44,WNW,284,0.0,9.0,94,0.00,,,0.00,Wunderground v.1.15,2013-02-24 13:20:00,
2013-02-24 06:25:00,17.3,15.9,29.44,WNW,284,0.0,9.0,94,0.00,,,0.00,Wunderground v.1.15,2013-02-24 13:25:00,
2013-02-24 06:30:00,17.6,16.2,29.44,WNW,284,0.0,9.0,94,0.00,,,0.00,Wunderground v.1.15,2013-02-24 13:30:00,
2013-02-24 06:35:00,17.8,16.4,29.44,WNW,284,0.0,9.0,94,0.00,,,0.00,Wunderground v.1.15,2013-02-24 13:35:00,
2013-02-24 06:40:00,18.0,16.6,29.44,WNW,284,0.0,9.0,94,0.00,,,0.00,Wunderground v.1.15,2013-02-24 13:40:00,
2013-02-24 06:45:00,18.1,16.4,29.43,WNW,284,0.0,9.0,93,0.00,,,0.00,Wunderground v.1.15,2013-02-24 13:45:00,
2013-02-24 06:50:00,18.1,16.4,29.43,WNW,284,0.0,9.0,93,0.00,,,0.00,Wunderground v.1.15,2013-02-24 13:50:00,
2013-02-24 06:55:00,18.0,16.1,29.43,WNW,284,0.0,9.0,92,0.00,,,0.00,Wunderground v.1.15,2013-02-24 13:55:00,
2013-02-24 07:00:00,17.9,15.7,29.43,WNW,284,0.0,9.0,91,0.00,,,0.00,Wunderground v.1.15,2013-02-24 14:00:00,
2013-02-24 07:10:00,17.5,15.3,29.44,WNW,284,0.0,9.0,91,0.00,,,0.00,Wunderground v.1.15,2013-02-24 14:10:00,
2013-02-24 07:15:00,17.4,15.2,29.45,WNW,284,0.0,9.0,91,0.00,,,0.00,Wunderground v.1.15,2013-02-24 14:15:00,
2013-02-24 07:20:00,17.3,15.1,29.45,WNW,284,0.0,9.0,91,0.00,,,0.00,Wunderground v.1.15,2013-02-24 14:20:00,
2013-02-24 07:25:00,17.1,14.9,29.45,WNW,284,0.0,9.0,91,0.00,,,0.00,Wunderground v.1.15,2013-02-24 14:25:00,
2013-02-24 07:30:00,17.0,14.6,29.45,WNW,284,0.0,9.0,90,0.00,,,0.00,Wunderground v.1.15,2013-02-24 14:30:00,
2013-02-24 07:35:00,16.9,14.5,29.46,WNW,284,0.0,9.0,90,0.00,,,0.00,Wunderground v.1.15,2013-02-24 14:35:00,
2013-02-24 07:40:00,17.0,14.6,29.46,WNW,284,0.0,9.0,90,0.00,,,0.00,Wunderground v.1.15,2013-02-24 14:40:00,
2013-02-24 07:45:00,17.1,14.7,29.46,SSW,192,0.0,9.0,90,0.00,,,0.00,Wunderground v.1.15,2013-02-24 14:45:00,
2013-02-24 07:50:00,17.3,14.9,29.46,WNW,296,0.0,9.0,90,0.00,,,0.00,Wunderground v.1.15,2013-02-24 14:50:00,
2013-02-24 07:55:00,17.5,15.1,29.47,NW,312,0.0,9.0,90,0.00,,,0.00,Wunderground v.1.15,2013-02-24 14:55:00,
2013-02-24 08:00:00,17.7,15.0,29.47,NW,312,0.0,9.0,89,0.00,,,0.00,Wunderground v.1.15,2013-02-24 15:00:00,
2013-02-24 08:05:00,17.8,14.8,29.47,NNW,346,0.0,9.0,88,0.00,,,0.00,Wunderground v.1.15,2013-02-24 15:05:00,
2013-02-24 08:10:00,17.9,14.7,29.48,WNW,290,0.0,9.0,87,0.00,,,0.00,Wunderground v.1.15,2013-02-24 15:10:00,
2013-02-24 08:20:00,17.9,14.4,29.48,NNW,334,0.0,9.0,86,0.00,,,0.00,Wunderground v.1.15,2013-02-24 15:20:00,
2013-02-24 08:25:00,18.1,14.4,29.48,NNW,334,0.0,9.0,85,0.00,,,0.00,Wunderground v.1.15,2013-02-24 15:25:00,
2013-02-24 08:30:00,18.4,14.4,29.48,NNW,333,0.0,9.0,84,0.00,,,0.00,Wunderground v.1.15,2013-02-24 15:30:00,
2013-02-24 08:35:00,18.8,14.5,29.48,NNW,333,0.0,9.0,83,0.00,,,0.00,Wunderground v.1.15,2013-02-24 15:35:00,
2013-02-24 08:40:00,19.2,14.0,29.48,WNW,294,0.0,9.0,80,0.00,,,0.00,Wunderground v.1.15,2013-02-24 15:40:00,
2013-02-24 08:45:00,19.4,13.9,29.48,WNW,302,0.0,9.0,79,0.00,,,0.00,Wunderground v.1.15,2013-02-24 15:45:00,
2013-02-24 08:50:00,19.5,13.5,29.48,West,269,0.0,9.0,77,0.00,,,0.00,Wunderground v.1.15,2013-02-24 15:50:00,
2013-02-24 09:00:00,20.5,14.1,29.49,West,273,0.0,9.0,76,0.00,,,0.00,Wunderground v.1.15,2013-02-24 16:00:00,
2013-02-24 09:05:00,20.5,13.2,29.49,NW,304,0.0,9.0,73,0.00,,,0.00,Wunderground v.1.15,2013-02-24 16:05:00,
2013-02-24 09:10:00,20.5,13.2,29.49,WNW,298,1.0,1.0,73,0.00,,,0.00,Wunderground v.1.15,2013-02-24 16:10:00,
2013-02-24 09:15:00,20.5,12.9,29.49,NNW,347,0.0,9.0,72,0.00,,,0.00,Wunderground v.1.15,2013-02-24 16:15:00,
2013-02-24 09:20:00,20.4,12.8,29.49,NNW,347,0.0,9.0,72,0.00,,,0.00,Wunderground v.1.15,2013-02-24 16:20:00,
2013-02-24 09:25:00,20.6,13.0,29.50,NNW,339,0.0,9.0,72,0.00,,,0.00,Wunderground v.1.15,2013-02-24 16:25:00,
2013-02-24 09:30:00,20.9,13.3,29.50,NNW,339,0.0,9.0,72,0.00,,,0.00,Wunderground v.1.15,2013-02-24 16:30:00,
2013-02-24 09:35:00,21.7,14.4,29.50,NW,310,0.0,9.0,73,0.00,,,0.00,Wunderground v.1.15,2013-02-24 16:35:00,
2013-02-24 09:40:00,22.6,14.0,29.50,WNW,302,0.0,9.0,69,0.00,,,0.00,Wunderground v.1.15,2013-02-24 16:40:00,
2013-02-24 09:45:00,23.0,13.0,29.50,WNW,302,0.0,9.0,65,0.00,,,0.00,Wunderground v.1.15,2013-02-24 16:45:00,
2013-02-24 09:50:00,23.4,12.6,29.51,WNW,302,0.0,9.0,63,0.00,,,0.00,Wunderground v.1.15,2013-02-24 16:50:00,
2013-02-24 09:55:00,23.6,12.1,29.51,WNW,302,0.0,9.0,61,0.00,,,0.00,Wunderground v.1.15,2013-02-24 16:55:00,
2013-02-24 10:00:00,23.6,11.7,29.51,WNW,302,0.0,9.0,60,0.00,,,0.00,Wunderground v.1.15,2013-02-24 17:00:00,
2013-02-24 10:05:00,23.4,14.7,29.51,NE,43,0.0,9.0,69,0.00,,,0.00,Wunderground v.1.15,2013-02-24 17:05:00,
2013-02-24 10:10:00,23.1,15.7,29.52,SE,124,0.0,9.0,73,0.00,,,0.00,Wunderground v.1.15,2013-02-24 17:10:00,
2013-02-24 10:15:00,22.3,15.6,29.52,SE,124,0.0,9.0,75,0.00,,,0.00,Wunderground v.1.15,2013-02-24 17:15:00,
2013-02-24 10:20:00,21.6,15.2,29.52,East,92,0.0,9.0,76,0.00,,,0.00,Wunderground v.1.15,2013-02-24 17:20:00,
2013-02-24 10:25:00,21.1,15.3,29.52,East,92,0.0,9.0,78,0.00,,,0.00,Wunderground v.1.15,2013-02-24 17:25:00,
2013-02-24 10:30:00,20.8,15.3,29.52,East,92,0.0,9.0,79,0.00,,,0.00,Wunderground v.1.15,2013-02-24 17:30:00,
2013-02-24 10:35:00,20.7,15.8,29.53,East,92,0.0,9.0,81,0.00,,,0.00,Wunderground v.1.15,2013-02-24 17:35:00,
2013-02-24 10:45:00,21.4,15.3,29.53,East,92,0.0,9.0,77,0.00,,,0.00,Wunderground v.1.15,2013-02-24 17:45:00,
2013-02-24 10:50:00,22.0,15.9,29.53,East,92,0.0,9.0,77,0.00,,,0.00,Wunderground v.1.15,2013-02-24 17:50:00,
2013-02-24 10:55:00,22.5,16.1,29.52,East,92,0.0,9.0,76,0.00,,,0.00,Wunderground v.1.15,2013-02-24 17:55:00,
2013-02-24 11:00:00,23.1,16.4,29.52,ENE,70,0.0,9.0,75,0.00,,,0.00,Wunderground v.1.15,2013-02-24 18:00:00,
2013-02-24 11:05:00,23.6,17.1,29.52,SSE,159,0.0,9.0,76,0.00,,,0.00,Wunderground v.1.15,2013-02-24 18:05:00,
2013-02-24 11:10:00,24.0,18.1,29.52,North,11,0.0,9.0,78,0.00,,,0.00,Wunderground v.1.15,2013-02-24 18:10:00,
2013-02-24 11:20:00,23.4,17.6,29.52,NW,317,0.0,9.0,78,0.00,,,0.00,Wunderground v.1.15,2013-02-24 18:20:00,
2013-02-24 11:25:00,23.1,17.3,29.53,NW,315,0.0,9.0,78,0.00,,,0.00,Wunderground v.1.15,2013-02-24 18:25:00,
2013-02-24 11:30:00,22.8,17.3,29.53,NW,315,0.0,9.0,79,0.00,,,0.00,Wunderground v.1.15,2013-02-24 18:30:00,
2013-02-24 11:35:00,22.6,17.4,29.53,NW,315,0.0,9.0,80,0.00,,,0.01,Wunderground v.1.15,2013-02-24 18:35:00,
2013-02-24 11:40:00,22.2,17.3,29.53,SSE,150,0.0,9.0,81,0.00,,,0.01,Wunderground v.1.15,2013-02-24 18:40:00,
2013-02-24 11:45:00,22.1,17.2,29.53,SSE,153,0.0,9.0,81,0.00,,,0.01,Wunderground v.1.15,2013-02-24 18:45:00,
2013-02-24 11:50:00,21.8,17.2,29.53,SSE,153,0.0,9.0,82,0.00,,,0.01,Wunderground v.1.15,2013-02-24 18:50:00,
2013-02-24 11:55:00,21.6,17.2,29.53,SSE,153,0.0,9.0,83,0.00,,,0.01,Wunderground v.1.15,2013-02-24 18:55:00,
2013-02-24 12:05:00,20.8,16.5,29.54,SSE,153,0.0,9.0,83,0.00,,,0.01,Wunderground v.1.15,2013-02-24 19:05:00,
2013-02-24 12:10:00,20.4,16.3,29.54,SSE,153,0.0,9.0,84,0.00,,,0.01,Wunderground v.1.15,2013-02-24 19:10:00,
2013-02-24 12:15:00,20.2,16.7,29.54,SSE,153,0.0,9.0,86,0.00,,,0.01,Wunderground v.1.15,2013-02-24 19:15:00,
2013-02-24 12:25:00,20.6,17.3,29.54,SSE,153,0.0,9.0,87,0.00,,,0.01,Wunderground v.1.15,2013-02-24 19:25:00,
2013-02-24 12:35:00,21.5,17.4,29.54,SSE,153,0.0,9.0,84,0.00,,,0.01,Wunderground v.1.15,2013-02-24 19:35:00,
2013-02-24 12:40:00,21.7,17.3,29.54,SSE,153,0.0,9.0,83,0.00,,,0.01,Wunderground v.1.15,2013-02-24 19:40:00,
2013-02-24 12:45:00,21.9,17.8,29.54,SSE,153,0.0,9.0,84,0.00,,,0.01,Wunderground v.1.15,2013-02-24 19:45:00,
2013-02-24 12:50:00,22.0,17.9,29.54,SSE,153,0.0,9.0,84,0.00,,,0.01,Wunderground v.1.15,2013-02-24 19:50:00,
2013-02-24 12:55:00,21.7,17.6,29.55,SSE,153,0.0,9.0,84,0.00,,,0.01,Wunderground v.1.15,2013-02-24 19:55:00,
2013-02-24 13:00:00,21.0,16.9,29.56,North,5,1.0,9.0,84,0.00,,,0.01,Wunderground v.1.15,2013-02-24 20:00:00,
2013-02-24 13:05:00,18.9,14.9,29.55,NNW,344,2.0,9.0,84,0.00,,,0.01,Wunderground v.1.15,2013-02-24 20:05:00,
2013-02-24 13:10:00,17.9,14.7,29.56,North,355,2.0,9.0,87,0.00,,,0.01,Wunderground v.1.15,2013-02-24 20:10:00,
2013-02-24 13:20:00,17.0,13.8,29.56,North,5,1.0,9.0,87,0.00,,,0.01,Wunderground v.1.15,2013-02-24 20:20:00,
2013-02-24 13:25:00,16.8,13.9,29.56,North,9,2.0,9.0,88,0.00,,,0.01,Wunderground v.1.15,2013-02-24 20:25:00,
2013-02-24 13:30:00,16.8,13.9,29.57,North,11,1.0,1.0,88,0.00,,,0.01,Wunderground v.1.15,2013-02-24 20:30:00,
2013-02-24 13:35:00,16.8,13.9,29.57,NNE,15,1.0,9.0,88,0.00,,,0.01,Wunderground v.1.15,2013-02-24 20:35:00,
2013-02-24 13:40:00,17.0,14.1,29.57,North,360,0.0,9.0,88,0.00,,,0.01,Wunderground v.1.15,2013-02-24 20:40:00,
2013-02-24 13:45:00,17.0,13.5,29.57,NNW,340,1.0,9.0,86,0.00,,,0.01,Wunderground v.1.15,2013-02-24 20:45:00,
2013-02-24 13:50:00,17.1,13.9,29.58,NNE,23,1.0,1.0,87,0.00,,,0.01,Wunderground v.1.15,2013-02-24 20:50:00,
2013-02-24 13:55:00,17.2,13.7,29.58,NNE,17,1.0,3.0,86,0.00,,,0.01,Wunderground v.1.15,2013-02-24 20:55:00,
2013-02-24 14:00:00,17.3,13.0,29.58,East,100,1.0,1.0,83,0.00,,,0.01,Wunderground v.1.15,2013-02-24 21:00:00,
2013-02-24 14:05:00,17.5,12.9,29.59,NNE,25,2.0,2.0,82,0.00,,,0.01,Wunderground v.1.15,2013-02-24 21:05:00,
2013-02-24 14:10:00,17.6,13.0,29.60,NNE,30,2.0,2.0,82,0.00,,,0.01,Wunderground v.1.15,2013-02-24 21:10:00,
2013-02-24 14:15:00,17.8,13.0,29.60,NW,321,1.0,9.0,81,0.00,,,0.01,Wunderground v.1.15,2013-02-24 21:15:00,
2013-02-24 14:20:00,18.0,13.2,29.61,NE,40,1.0,1.0,81,0.00,,,0.01,Wunderground v.1.15,2013-02-24 21:20:00,
2013-02-24 14:30:00,18.7,13.8,29.61,NW,323,0.0,9.0,81,0.00,,,0.01,Wunderground v.1.15,2013-02-24 21:30:00,
2013-02-24 14:35:00,18.9,13.7,29.62,NW,323,1.0,9.0,80,0.00,,,0.01,Wunderground v.1.15,2013-02-24 21:35:00,
2013-02-24 14:40:00,19.0,13.6,29.62,NNE,20,0.0,9.0,79,0.00,,,0.01,Wunderground v.1.15,2013-02-24 21:40:00,
2013-02-24 14:45:00,19.0,13.0,29.63,NW,322,0.0,9.0,77,0.00,,,0.01,Wunderground v.1.15,2013-02-24 21:45:00,
2013-02-24 14:50:00,19.2,13.8,29.63,NW,322,0.0,9.0,79,0.00,,,0.01,Wunderground v.1.15,2013-02-24 21:50:00,
2013-02-24 15:00:00,19.4,13.1,29.63,NNE,30,0.0,9.0,76,0.00,,,0.01,Wunderground v.1.15,2013-02-24 22:00:00,
2013-02-24 15:05:00,19.4,15.1,29.64,NNW,347,0.0,9.0,83,0.00,,,0.01,Wunderground v.1.15,2013-02-24 22:05:00,
2013-02-24 15:10:00,19.2,12.9,29.64,North,5,0.0,9.0,76,0.00,,,0.01,Wunderground v.1.15,2013-02-24 22:10:00,
2013-02-24 15:15:00,19.1,12.2,29.65,NE,41,0.0,9.0,74,0.00,,,0.01,Wunderground v.1.15,2013-02-24 22:15:00,
2013-02-24 15:20:00,19.2,12.6,29.65,East,90,0.0,9.0,75,0.00,,,0.01,Wunderground v.1.15,2013-02-24 22:20:00,
2013-02-24 15:25:00,19.3,13.0,29.65,SSE,167,0.0,9.0,76,0.00,,,0.01,Wunderground v.1.15,2013-02-24 22:25:00,
2013-02-24 15:35:00,19.8,13.8,29.67,NW,304,0.0,9.0,77,0.00,,,0.01,Wunderground v.1.15,2013-02-24 22:35:00,
2013-02-24 15:40:00,19.7,13.4,29.67,NW,317,0.0,9.0,76,0.00,,,0.01,Wunderground v.1.15,2013-02-24 22:40:00,
2013-02-24 15:50:00,18.9,11.4,29.68,NE,42,1.0,9.0,72,0.00,,,0.01,Wunderground v.1.15,2013-02-24 22:50:00,
2013-02-24 15:55:00,18.5,10.7,29.68,NE,37,1.0,9.0,71,0.00,,,0.01,Wunderground v.1.15,2013-02-24 22:55:00,
2013-02-24 16:00:00,18.4,10.9,29.69,ENE,65,1.0,1.0,72,0.00,,,0.01,Wunderground v.1.15,2013-02-24 23:00:00,
2013-02-24 16:10:00,18.5,10.7,29.70,NNE,22,1.0,1.0,71,0.00,,,0.01,Wunderground v.1.15,2013-02-24 23:10:00,
2013-02-24 16:15:00,18.5,11.3,29.70,NW,304,1.0,9.0,73,0.00,,,0.01,Wunderground v.1.15,2013-02-24 23:15:00,
2013-02-24 16:20:00,18.6,11.4,29.71,NE,55,0.0,9.0,73,0.00,,,0.01,Wunderground v.1.15,2013-02-24 23:20:00,
2013-02-24 16:25:00,18.5,10.7,29.71,NE,40,1.0,9.0,71,0.00,,,0.01,Wunderground v.1.15,2013-02-24 23:25:00,
2013-02-24 16:30:00,18.0,9.5,29.72,North,10,2.0,2.0,69,0.00,,,0.01,Wunderground v.1.15,2013-02-24 23:30:00,
2013-02-24 16:40:00,17.6,10.1,29.73,NNE,28,1.0,1.0,72,0.00,,,0.01,Wunderground v.1.15,2013-02-24 23:40:00,
2013-02-24 16:50:00,17.6,10.1,29.74,NE,41,0.0,9.0,72,0.00,,,0.01,Wunderground v.1.15,2013-02-24 23:50:00,
2013-02-24 16:55:00,17.5,10.0,29.74,NW,317,0.0,9.0,72,0.00,,,0.01,Wunderground v.1.15,2013-02-24 23:55:00,
2013-02-24 17:00:00,17.4,10.2,29.75,North,355,1.0,1.0,73,0.00,,,0.01,Wunderground v.1.15,2013-02-25 00:00:00,
2013-02-24 17:10:00,17.1,10.2,29.75,North,360,0.0,9.0,74,0.00,,,0.01,Wunderground v.1.15,2013-02-25 00:10:00,
2013-02-24 17:20:00,16.9,10.3,29.76,North,360,0.0,9.0,75,0.00,,,0.01,Wunderground v.1.15,2013-02-25 00:20:00,
2013-02-24 17:25:00,16.8,9.9,29.77,North,360,0.0,9.0,74,0.00,,,0.01,Wunderground v.1.15,2013-02-25 00:25:00,
2013-02-24 17:30:00,16.7,9.8,29.77,ESE,119,0.0,9.0,74,0.00,,,0.01,Wunderground v.1.15,2013-02-25 00:30:00,
2013-02-24 17:35:00,16.6,9.8,29.77,NNE,25,0.0,9.0,74,0.00,,,0.01,Wunderground v.1.15,2013-02-25 00:35:00,
2013-02-24 17:40:00,16.6,9.4,29.77,NNE,32,0.0,9.0,73,0.00,,,0.01,Wunderground v.1.15,2013-02-25 00:40:00,
2013-02-24 17:45:00,16.5,10.0,29.77,NNE,32,0.0,9.0,75,0.00,,,0.01,Wunderground v.1.15,2013-02-25 00:45:00,
2013-02-24 17:55:00,16.3,9.2,29.78,North,355,0.0,9.0,73,0.00,,,0.01,Wunderground v.1.15,2013-02-25 00:55:00,
2013-02-24 18:00:00,16.2,8.8,29.78,North,11,0.0,9.0,72,0.00,,,0.01,Wunderground v.1.15,2013-02-25 01:00:00,
2013-02-24 18:05:00,16.2,9.4,29.79,North,11,0.0,9.0,74,0.00,,,0.01,Wunderground v.1.15,2013-02-25 01:05:00,
2013-02-24 18:10:00,16.1,9.3,29.80,NNE,22,0.0,9.0,74,0.00,,,0.01,Wunderground v.1.15,2013-02-25 01:10:00,
2013-02-24 18:15:00,16.1,8.7,29.80,NNW,344,0.0,9.0,72,0.00,,,0.01,Wunderground v.1.15,2013-02-25 01:15:00,
2013-02-24 18:25:00,15.9,9.1,29.81,ENE,68,0.0,9.0,74,0.00,,,0.01,Wunderground v.1.15,2013-02-25 01:25:00,
2013-02-24 18:30:00,15.8,9.3,29.81,ENE,68,0.0,9.0,75,0.00,,,0.01,Wunderground v.1.15,2013-02-25 01:30:00,
2013-02-24 18:35:00,15.6,8.8,29.82,ENE,68,0.0,9.0,74,0.00,,,0.01,Wunderground v.1.15,2013-02-25 01:35:00,
2013-02-24 18:45:00,15.3,9.4,29.83,ENE,68,0.0,9.0,77,0.00,,,0.01,Wunderground v.1.15,2013-02-25 01:45:00,
2013-02-24 18:50:00,15.1,9.8,29.83,ENE,68,0.0,9.0,79,0.00,,,0.01,Wunderground v.1.15,2013-02-25 01:50:00,
2013-02-24 18:55:00,14.9,9.6,29.83,ENE,68,0.0,9.0,79,0.00,,,0.01,Wunderground v.1.15,2013-02-25 01:55:00,
2013-02-24 19:00:00,14.6,9.6,29.83,ENE,68,0.0,9.0,80,0.00,,,0.01,Wunderground v.1.15,2013-02-25 02:00:00,
2013-02-24 19:05:00,14.4,9.9,29.83,ENE,68,0.0,9.0,82,0.00,,,0.01,Wunderground v.1.15,2013-02-25 02:05:00,
2013-02-24 19:10:00,14.2,9.7,29.84,ENE,68,0.0,9.0,82,0.00,,,0.01,Wunderground v.1.15,2013-02-25 02:10:00,
2013-02-24 19:15:00,14.0,9.8,29.84,ENE,68,0.0,9.0,83,0.00,,,0.01,Wunderground v.1.15,2013-02-25 02:15:00,
2013-02-24 19:20:00,13.8,9.6,29.84,ENE,68,0.0,9.0,83,0.00,,,0.01,Wunderground v.1.15,2013-02-25 02:20:00,
2013-02-24 19:25:00,13.6,9.4,29.84,ENE,68,0.0,9.0,83,0.00,,,0.01,Wunderground v.1.15,2013-02-25 02:25:00,
2013-02-24 19:30:00,13.5,9.6,29.84,ENE,68,0.0,9.0,84,0.00,,,0.01,Wunderground v.1.15,2013-02-25 02:30:00,
2013-02-24 19:35:00,13.3,9.4,29.84,ENE,68,0.0,9.0,84,0.00,,,0.01,Wunderground v.1.15,2013-02-25 02:35:00,
2013-02-24 19:40:00,13.1,9.2,29.85,ENE,68,0.0,9.0,84,0.00,,,0.01,Wunderground v.1.15,2013-02-25 02:40:00,
2013-02-24 19:45:00,12.8,8.9,29.85,ENE,68,0.0,9.0,84,0.00,,,0.01,Wunderground v.1.15,2013-02-25 02:45:00,
2013-02-24 19:50:00,12.6,8.7,29.85,ENE,68,0.0,9.0,84,0.00,,,0.01,Wunderground v.1.15,2013-02-25 02:50:00,
2013-02-24 19:55:00,12.2,8.3,29.85,ENE,68,0.0,9.0,84,0.00,,,0.01,Wunderground v.1.15,2013-02-25 02:55:00,
2013-02-24 20:00:00,11.8,7.9,29.86,ENE,68,0.0,9.0,84,0.00,,,0.01,Wunderground v.1.15,2013-02-25 03:00:00,
2013-02-24 20:05:00,11.4,7.5,29.86,ENE,68,0.0,9.0,84,0.00,,,0.01,Wunderground v.1.15,2013-02-25 03:05:00,
2013-02-24 20:10:00,11.0,6.8,29.86,ENE,68,0.0,9.0,83,0.00,,,0.01,Wunderground v.1.15,2013-02-25 03:10:00,
2013-02-24 20:15:00,10.5,6.6,29.87,ENE,68,0.0,9.0,84,0.00,,,0.01,Wunderground v.1.15,2013-02-25 03:15:00,
2013-02-24 20:20:00,9.9,5.8,29.87,ENE,68,0.0,9.0,83,0.00,,,0.01,Wunderground v.1.15,2013-02-25 03:20:00,
2013-02-24 20:25:00,9.3,5.2,29.87,ENE,68,0.0,9.0,83,0.00,,,0.01,Wunderground v.1.15,2013-02-25 03:25:00,
2013-02-24 20:30:00,8.8,5.0,29.88,ENE,68,0.0,9.0,84,0.00,,,0.01,Wunderground v.1.15,2013-02-25 03:30:00,
2013-02-24 20:35:00,8.2,4.1,29.88,ENE,68,0.0,9.0,83,0.00,,,0.01,Wunderground v.1.15,2013-02-25 03:35:00,
2013-02-24 20:40:00,7.7,3.6,29.88,ENE,68,0.0,9.0,83,0.00,,,0.01,Wunderground v.1.15,2013-02-25 03:40:00,
2013-02-24 20:45:00,7.1,3.0,29.89,ENE,68,0.0,9.0,83,0.00,,,0.01,Wunderground v.1.15,2013-02-25 03:45:00,
2013-02-24 20:50:00,6.8,3.0,29.88,ENE,68,0.0,9.0,84,0.00,,,0.01,Wunderground v.1.15,2013-02-25 03:50:00,
2013-02-24 20:55:00,6.3,2.2,29.89,ENE,68,0.0,9.0,83,0.00,,,0.01,Wunderground v.1.15,2013-02-25 03:55:00,
2013-02-24 21:00:00,6.0,2.2,29.88,ENE,68,0.0,9.0,84,0.00,,,0.01,Wunderground v.1.15,2013-02-25 04:00:00,
2013-02-24 21:10:00,5.7,2.4,29.89,ENE,68,0.0,9.0,86,0.00,,,0.01,Wunderground v.1.15,2013-02-25 04:10:00,
2013-02-24 21:15:00,5.5,2.0,29.89,ENE,68,0.0,9.0,85,0.00,,,0.01,Wunderground v.1.15,2013-02-25 04:15:00,
2013-02-24 21:20:00,5.4,2.1,29.90,ENE,68,0.0,9.0,86,0.00,,,0.01,Wunderground v.1.15,2013-02-25 04:20:00,
2013-02-24 21:25:00,5.4,2.4,29.90,ENE,68,0.0,9.0,87,0.00,,,0.01,Wunderground v.1.15,2013-02-25 04:25:00,
2013-02-24 21:30:00,5.2,1.9,29.91,ENE,68,0.0,9.0,86,0.00,,,0.01,Wunderground v.1.15,2013-02-25 04:30:00,
2013-02-24 21:35:00,4.9,1.6,29.91,ENE,68,0.0,9.0,86,0.00,,,0.01,Wunderground v.1.15,2013-02-25 04:35:00,
2013-02-24 21:40:00,4.6,1.3,29.91,ENE,68,0.0,9.0,86,0.00,,,0.01,Wunderground v.1.15,2013-02-25 04:40:00,
2013-02-24 21:45:00,4.4,1.1,29.91,ENE,68,0.0,9.0,86,0.00,,,0.01,Wunderground v.1.15,2013-02-25 04:45:00,
2013-02-24 21:55:00,3.8,0.3,29.91,ENE,68,0.0,9.0,85,0.00,,,0.01,Wunderground v.1.15,2013-02-25 04:55:00,
2013-02-24 22:00:00,3.6,0.4,29.92,ENE,68,0.0,9.0,86,0.00,,,0.01,Wunderground v.1.15,2013-02-25 05:00:00,
2013-02-24 22:05:00,3.5,0.3,29.92,ENE,68,0.0,9.0,86,0.00,,,0.01,Wunderground v.1.15,2013-02-25 05:05:00,
2013-02-24 22:15:00,3.2,0.0,29.92,ENE,68,0.0,9.0,86,0.00,,,0.01,Wunderground v.1.15,2013-02-25 05:15:00,
2013-02-24 22:20:00,3.3,0.3,29.93,ENE,68,0.0,9.0,87,0.00,,,0.01,Wunderground v.1.15,2013-02-25 05:20:00,
2013-02-24 22:25:00,3.3,0.3,29.93,ENE,68,0.0,9.0,87,0.00,,,0.01,Wunderground v.1.15,2013-02-25 05:25:00,
2013-02-24 22:30:00,3.4,0.4,29.93,ENE,68,0.0,9.0,87,0.00,,,0.01,Wunderground v.1.15,2013-02-25 05:30:00,
2013-02-24 22:35:00,3.4,0.4,29.93,ENE,68,0.0,9.0,87,0.00,,,0.01,Wunderground v.1.15,2013-02-25 05:35:00,
2013-02-24 22:40:00,3.6,0.6,29.93,ENE,68,0.0,9.0,87,0.00,,,0.01,Wunderground v.1.15,2013-02-25 05:40:00,
2013-02-24 22:45:00,3.8,1.0,29.93,ENE,68,0.0,9.0,88,0.00,,,0.01,Wunderground v.1.15,2013-02-25 05:45:00,
2013-02-24 22:50:00,4.0,1.2,29.93,ENE,68,0.0,9.0,88,0.00,,,0.01,Wunderground v.1.15,2013-02-25 05:50:00,
2013-02-24 22:55:00,4.2,1.7,29.93,ENE,68,0.0,9.0,89,0.00,,,0.01,Wunderground v.1.15,2013-02-25 05:55:00,
2013-02-24 23:00:00,4.2,1.2,29.93,ENE,68,0.0,9.0,87,0.00,,,0.01,Wunderground v.1.15,2013-02-25 06:00:00,
2013-02-24 23:05:00,4.0,0.7,29.93,ENE,68,0.0,9.0,86,0.00,,,0.01,Wunderground v.1.15,2013-02-25 06:05:00,
2013-02-24 23:10:00,3.9,0.9,29.93,ENE,68,0.0,9.0,87,0.00,,,0.01,Wunderground v.1.15,2013-02-25 06:10:00,
2013-02-24 23:15:00,3.7,0.4,29.93,ENE,68,0.0,9.0,86,0.00,,,0.01,Wunderground v.1.15,2013-02-25 06:15:00,
2013-02-24 23:20:00,3.5,0.3,29.93,ENE,68,0.0,9.0,86,0.00,,,0.01,Wunderground v.1.15,2013-02-25 06:20:00,
2013-02-24 23:25:00,3.3,0.1,29.93,ENE,68,0.0,9.0,86,0.00,,,0.01,Wunderground v.1.15,2013-02-25 06:25:00,
2013-02-24 23:30:00,2.9,-0.6,29.94,ENE,68,0.0,9.0,85,0.00,,,0.01,Wunderground v.1.15,2013-02-25 06:30:00,
2013-02-24 23:35:00,2.6,-0.9,29.94,ENE,68,0.0,9.0,85,0.00,,,0.01,Wunderground v.1.15,2013-02-25 06:35:00,
2013-02-24 23:40:00,2.3,-1.4,29.94,ENE,68,0.0,9.0,84,0.00,,,0.01,Wunderground v.1.15,2013-02-25 06:40:00,
2013-02-24 23:45:00,1.9,-1.6,29.94,ENE,68,0.0,9.0,85,0.00,,,0.01,Wunderground v.1.15,2013-02-25 06:45:00,
2013-02-24 23:50:00,1.6,-1.9,29.94,ENE,68,0.0,9.0,85,0.00,,,0.01,Wunderground v.1.15,2013-02-25 06:50:00,